STARLINK-56 (44283 NORAD) Tracking and Keplerian Element Data

This shows tracking and keplerian element data for the satellite.

Feedback or suggestion? Click here.




ElementValue
Catalog44283
NameSTARLINK-56
Epoch Orbit7250
Epoch Day254.21247495
Epoch Year2020
RAAN144.6174
Inclination52.9873
Eccentricity0.0011081
Argument of Perigee245.6054
Mean Anonmoly114.6761
Mean Motion16.30933978
Decay Rate0.04079276
L11 44283U 19029BA 20254.21247495 .04079276 12086-4 78158-3 0 9997
L22 44283 52.9873 144.6174 0011081 245.6054 114.6761 16.30933978 72500



Live tracking and technical data element details for STARLINK-56 (NORAD 44283). STARLINK-56 can be tracked NOW for your location showing map with azimuth and elevation plus other details from your city location.







IsCatalogInMostPopularTable: catalog: 44283, numindb: 293
Update: records affected: 1



GetName: 44283 STARLINK-56

Hit Count: updated at: Thu, 22 May 2025 03:29:47 GMT